Regional Weather Roundup
Issued by NWS

Home | Current Version | Previous Version | Text Only | Print | Product List | Glossary On
Versions: 1 2 3 4 5 6 7 8 9 10 11 12 13 14 15 16 17 18 19 20 21 22 23 24 25 26 27 28 29 30 31 32 33 34 35 36 37 38 39 40 41 42 43 44 45 46 47 48 49 50
000
ASHW40 PHFO 231643
RWRHI

WEATHER ROUNDUP FOR HAWAII
NATIONAL WEATHER SERVICE HONOLULU HI
600 AM HST SAT MAY 23 2015

THIS IS AN AUTOMATED REPORT THAT HAS NOT BEEN QUALITY CONTROLLED.

NOTE..."FAIR" INDICATES FEW OR NO CLOUDS BELOW 12,000 FEET WITH NO
SIGNIFICANT WEATHER AND/OR OBSTRUCTIONS TO VISIBILITY.

* - THESE SITES REPORT LIMITED FIELDS

HIZ001>004-231700-
KAUAI-NIIHAU-

CITY           SKY/WX    TMP DP  RH WIND       PRES   REMARKS
LIHUE APT      PTCLDY    68  57  68 N7        30.06R
PORT ALLEN*    NOT AVBL
POIPU*           N/A     70 N/A N/A NE5G12      N/A
PRINCEVILLE*     N/A     72 N/A N/A MISG        N/A
KOKOLE POINT*  NOT AVBL
MOLOAA DAIRY*  NOT AVBL
WAIMEA HTS*      N/A     70  57  64 N2          N/A
PUU OPAE*        N/A     61  54  77 NE9         N/A
PUU LUA*       NOT AVBL
MAKAHA RIDGE*    N/A     63  54  72 NE5G10      N/A
$$

HIZ005>011-231700-
OAHU-

CITY           SKY/WX    TMP DP  RH WIND       PRES   REMARKS
HONOLULU       MOCLDY    72  63  73 N5        30.02R
KALAELOA       CLOUDY    71  61  70 VRB6      30.03R
KANEOHE MCB    CLOUDY    71  63  75 CALM      30.02S
WHEELER FIELD  FAIR      66  61  83 N7        30.03R
BELLOWS*         N/A    N/A N/A N/A W6G12       N/A
KAHUKU*          N/A    N/A N/A N/A NE2G8       N/A
WHEELER*       NOT AVBL
WAIANAE HARBOR NOT AVBL
DILLINGHAM*      N/A     68  61  77 MISG        N/A
KAHUKU TRN*      N/A     66  55  68 NE5G12      N/A
KAWAILOA*        N/A     64  59  82 NE9G16      N/A
KII*             N/A    N/A N/A N/A NE12G17     N/A
MAKUA RANGE*     N/A    N/A N/A N/A E12G28      N/A
OAHU FOREST NW   N/A     59  12  15 CALM        N/A
SCHOFIELD BRK*   N/A     64  61  88 MISG        N/A
SCHOFIELD S*   NOT AVBL
WAIANAE VLY*     N/A     66  59  77 VRB7G21     N/A
KUAOKALA*        N/A     68  61  77 NE17G26     N/A
HONOULIUULI*   NOT AVBL
MOKUOLOE IS*     N/A    N/A N/A N/A MISG        N/A
PALEHUA*         N/A     63  57  82 NE8G17      N/A
WAIAWA PHB*    NOT AVBL
$$

HIZ012>013-231700-
MOLOKAI-

CITY           SKY/WX    TMP DP  RH WIND       PRES   REMARKS
MOLOKAI AIRPT  CLOUDY    71  61  70 N12G17    30.03R
KALAUPAPA      NOT AVBL
MAKAPULAPAI*     N/A     70  64  83 SE7G14      N/A
MOLOKAI 1*       N/A     61  59  94 N9G18       N/A
PUU ALII*        N/A     56  56 100 CALM        N/A
$$

HIZ016-231700-
KAHOOLAWE-

CITY           SKY/WX    TMP DP  RH WIND       PRES   REMARKS
KAHOOLAWE*       N/A     64 N/A N/A N10G16      N/A
HAKIOAWA*        N/A     66  66 100 MISG      30.46R
HONOKANAIA*      N/A     70  65  84 VRB12G21  30.03R
KANELOA*         N/A     70  68  94 N12G24    30.06R
KEALIALALO*      N/A     66  66 100 NE9G17    30.04R
LUA MAKIKA*    NOT AVBL
$$

HIZ014>015-231700-
LANAI-

CITY           SKY/WX    TMP DP  RH WIND       PRES   REMARKS
LANAI CITY     CLOUDY    66  63  90 NE13      30.06R
LANAI 1*         N/A     66  64  94 E15G24      N/A
$$

HIZ017>028-231700-
MAUI-

CITY           SKY/WX    TMP DP  RH WIND       PRES   REMARKS
KAHULUI        CLOUDY    70  69  97 E6        30.03R
KAPALUA-W MAUI CLOUDY    68  66  94 NE12      30.03
HANA AIRPORT   HVY RAIN  68  68 100 W6        30.07R VSB 1/2
HANA*            N/A     68 N/A N/A SW5         N/A
HALEAKALA SUMM   N/A     41  41 100 N7          N/A
MAALAEA BAY*   NOT AVBL
HALEAKALA*     NOT AVBL
KAUPO GAP*       N/A     57  55  94 NW3         N/A
KULA 1*          N/A     50  50 100 N2          N/A
$$

HIZ023>026-231700-
BIG ISLAND OF HAWAII COAST AND LOWER SLOPES-

CITY           SKY/WX    TMP DP  RH WIND       PRES   REMARKS
KAILUA KONA    CLEAR     72  65  78 NE5       29.99R
HILO           MOCLDY    68  62  81 SW6       30.01R
HONOKAA*       NOT AVBL
KAWAIHAE MWT*    N/A     72 N/A N/A E2          N/A
KAWAIHAE*        N/A     73 N/A N/A NE3         N/A
SOUTH POINT*     N/A     68 N/A N/A N5          N/A
UPOLU AIRPORT*   N/A    N/A N/A N/A E9          N/A
KAMUELA*       SUNNY     55  54  94 E7        30.12R
HAKALAU*         N/A     46  46 100 W3          N/A
KALOKO-HONOKO*   N/A     70  66  88 N3        29.99R
PALI 2*          N/A     61  57  88 N5          N/A
KEALAKOMO*       N/A    N/A N/A N/A NW2         N/A
KAUPULEHU*       N/A     66  64  94 SE5         N/A
KAPAPALA*        N/A     62  60  92 NW5         N/A
LOWER KAHUKU*    N/A     57  57 100 N2          N/A
PUHE CS*         N/A    N/A N/A N/A NE3         N/A
PUHO CS*         N/A     69  64  83 E2          N/A
PTA KEAMUKU*     N/A     55  52  88 CALM        N/A
WAIKOLOA*        N/A     66  59  77 E6          N/A
$$

HIZ027>028-231700-
BIG ISLAND OF HAWAII INTERIOR AND SUMMMITS-

CITY           SKY/WX    TMP DP  RH WIND       PRES   REMARKS
BRADSHAW FIELD PTCLDY    45  43  93 SE3       30.29R
MK VISITOR CEN   N/A      0   0 100 MISG        N/A
MAUNA KEA*       N/A     36 -11  13 NW31        N/A  WCI  22
MAUNA LOA*       N/A     43  14  31 MISG        N/A
MAUNA LOA 1*   NOT AVBL
PTA KIPUKA*      N/A     54  50  87 E3          N/A
PTA RANGE 17*    N/A     46  45  93 CALM        N/A
PTA WEST*        N/A     66  63  88 SE7         N/A
NENE CABIN*      N/A     43 N/A N/A N3          N/A
AHUMOA*          N/A     51  45  79 SE3         N/A
PTA PORTABLE*  NOT AVBL
PUU MALI*        N/A     46  43  87 SW6G12      N/A
$$

HIC003-231700-
NORTHWEST ISLANDS-

CITY           SKY/WX    TMP DP  RH WIND       PRES   REMARKS
MIDWAY ISLAND  CLEAR    N/A N/A N/A E12       30.25R
MIDWAY NOS*    NOT AVBL
FRENCH FRIGATE NOT AVBL
$$

PHZ110>124-180-231700-
BUOY REPORTS

STATION/POSITION TIME  TEMP    WIND        PRES    WAVE   SWELL
                       AIR SEA DIR/SP/G            HT/PER HT/DIR
                 (UTC) (F)     (DEG/KT/KT) (MB)    (FT/S) (FT/D)
BUOY 51001       NOT AVBL
BUOY 51101       1600   71 76   50/ 16/ 17 1018.5F   7/ 8   5
BUOY 51100       NOT AVBL
BUOY 51002       1600   76 79   60/  6/  8 1015.3R   5/14   5/180
BUOY 51003       1600   77 79   60/ 12/ 14 1015.7R   7/ 8   7
BUOY 51004       1509   76 78   70/  4/  4 1015.6R   4/14   3/170
BARBERS PT BUOY  NOT AVBL
WAIMEA BAY BUOY  1600      78                N/A     7/ 9
KAILUA BAY BUOY  1600      77                N/A     5/ 9   2/350
LANAI BUOY       NOT AVBL
BARBERS PT 2     1600      77                N/A     4/14   3/200
PAUWELA MAUI     1600      77                N/A     7/ 9   2/340
HILO             1600      77                N/A     4/ 8   2/ 10
KANEOHE BAY BUOY 1600      77                N/A     6/ 9   2/350
HANALEI KAUAI    1600      78                N/A     8/ 9   3/320
KAHULUI HARBOR   1600   71 78   20/ 12/ 14 1016.7R
HONOLULU HARBOR  1600   72 78  220/  2/  4 1016.8R
KILO NALU        NOT AVBL
HILO HARBOR      1600   71 77  270/  5/  6 1016.0R
MOKUOLOE         1600   69 78  320/  4/  6 1017.5R
NAWILIWILI       1600   67 78  270/  7/  8 1017.6R
WHOTS BUOY       NOT AVBL
BUOY 51028       NOT AVBL
$$

......................KEY........................................
  SKY/WX - SKY CONDITIONS/PRESENT WEATHER
  TMP    - TEMPERATURE IN FAHRENHEIT
  DWPT   - DEWPOINT IN FAHRENHEIT
  RH     - RELATIVE HUMIDITY IN PERCENT
  WIND   - DIRECTION AND SPEED /MPH FOR ISLANDS...KTS FOR BUOYS/
  PRES   - MEAN SEA LEVEL PRESSURE IN INCHES OF HG
  VSB    - VISIBILITY IN MILES
  HX     - HEAT INDEX
  WCI    - WIND CHILL INDEX
  VRB    - VARIABLE WIND DIRECTION
  N/A    - NOT AVAILABLE


USA.gov is the U.S. government's official web portal to all federal, state and local government web resources and services.